QPF
0.00 0.00 0.00 0.00 0.00 0.00 0.00 0.00 0.00 0.00 0.00 0.00 0.00 0.00 0.00 0.00 0.00 0.00 0.00 0.00 0.00 0.00 0.00 0.00 0.00 0.01 0.01 0.01 0.00 0.00 0.00 0.00 0.00 0.00 0.00 0.00 0.00 0.00 0.00 0.00 0.01 0.01 0.01
0.00 0.00 0.00 0.00 0.00 0.00 0.00 0.00 0.00 0.00 0.00 0.00 0.00 0.00 0.00 0.00 0.00 0.00 0.00 0.00 0.00 0.00 0.00 0.00 0.00 0.00 0.00 0.01 0.01 0.01 0.01 0.00 0.00 0.00 0.00 0.00 0.00 0.00 0.00 0.00 0.00 0.00 0.00
0.00 0.00 0.00 0.00 0.00 0.00 0.00 0.00 0.00 0.00 0.00 0.00 0.00 0.00 0.00 0.00 0.00 0.00 0.00 0.00 0.00 0.00 0.00 0.00 0.00 0.00 0.00 0.00 0.01 0.02 0.03 0.02 0.03 0.03 0.03 0.02 0.01 0.00 0.00 0.00 0.00 0.00 0.00
0.00 0.00 0.00 0.00 0.00 0.00 0.00 0.00 0.00 0.00 0.00 0.00 0.00 0.00 0.00 0.00 0.00 0.00 0.00 0.00 0.00 0.00 0.00 0.00 0.00 0.00 0.00 0.00 0.00 0.00 0.01 0.02 0.03 0.03 0.04 0.05 0.04 0.03 0.01 0.01 0.00 0.00 0.00
0.00 0.00 0.00 0.00 0.00 0.00 0.00 0.00 0.00 0.00 0.00 0.00 0.00 0.00 0.00 0.00 0.00 0.00 0.00 0.00 0.00 0.00 0.00 0.00 0.00 0.00 0.00 0.00 0.00 0.00 0.00 0.00 0.01 0.02 0.03 0.06 0.09 0.08 0.07 0.05 0.03 0.01 0.00
0.00 0.00 0.00 0.00 0.00 0.00 0.00 0.00 0.00 0.00 0.00 0.00 0.00 0.00 0.00 0.00 0.00 0.00 0.00 0.00 0.00 0.00 0.00 0.00 0.00 0.00 0.00 0.00 0.00 0.00 0.00 0.00 0.00 0.00 0.00 0.01 0.04 0.08 0.10 0.08 0.06 0.04 0.02
0.00 0.00 0.00 0.00 0.00 0.00 0.00 0.00 0.00 0.00 0.00 0.00 0.00 0.00 0.00 0.00 0.00 0.00 0.00 0.00 0.00 0.00 0.00 0.00 0.00 0.00 0.00 0.00 0.00 0.00 0.00 0.00 0.00 0.00 0.00 0.00 0.00 0.01 0.04 0.07 0.08 0.10 0.11
0.00 0.00 0.00 0.00 0.00 0.00 0.00 0.00 0.00 0.00 0.00 0.00 0.00 0.00 0.00 0.00 0.00 0.00 0.00 0.00 0.00 0.00 0.00 0.00 0.00 0.00 0.00 0.00 0.00 0.00 0.00 0.00 0.00 0.00 0.00 0.00 0.00 0.00 0.00 0.03 0.14 0.23 0.26
0.00 0.01 0.01 0.01 0.00 0.00 0.00 0.00 0.00 0.00 0.00 0.00 0.00 0.00 0.00 0.00 0.00 0.00 0.00 0.00 0.00 0.00 0.00 0.00 0.00 0.00 0.00 0.00 0.00 0.00 0.00 0.00 0.00 0.00 0.00 0.00 0.00 0.00 0.00 0.00 0.00 0.09 0.22
0.00 0.00 0.00 0.00 0.00 0.00 0.00 0.00 0.00 0.00 0.00 0.00 0.00 0.00 0.00 0.00 0.00 0.00 0.00 0.00 0.00 0.00 0.00 0.00 0.00 0.00 0.00 0.00 0.00 0.00 0.00 0.00 0.00 0.00 0.00 0.00 0.01 0.01 0.01 0.00 0.00 0.00 0.13
0.00 0.00 0.00 0.00 0.00 0.00 0.00 0.00 0.00 0.00 0.00 0.00 0.00 0.00 0.00 0.00 0.00 0.00 0.00 0.00 0.00 0.00 0.00 0.00 0.00 0.00 0.00 0.00 0.00 0.00 0.00 0.00 0.00 0.00 0.00 0.00 0.00 0.00 0.00 0.00 0.00 0.00 0.00
0.00 0.00 0.00 0.00 0.00 0.00 0.00 0.00 0.00 0.00 0.00 0.00 0.00 0.00 0.00 0.00 0.00 0.00 0.00 0.00 0.00 0.00 0.00 0.00 0.00 0.00 0.00 0.00 0.00 0.00 0.00 0.00 0.00 0.00 0.00 0.00 0.00 0.00 0.00 0.00 0.00 0.00 0.00
0.00 0.00 0.00 0.00 0.00 0.00 0.00 0.00 0.00 0.00 0.00 0.00 0.00 0.00 0.00 0.00 0.00 0.00 0.00 0.00 0.00 0.00 0.00 0.00 0.00 0.00 0.00 0.00 0.00 0.00 0.00 0.00 0.00 0.00 0.00 0.00 0.00 0.00 0.00 0.00 0.00 0.00 0.00
0.00 0.00 0.00 0.00 0.00 0.00 0.00 0.00 0.00 0.00 0.00 0.00 0.00 0.00 0.00 0.00 0.00 0.00 0.00 0.00 0.00 0.00 0.00 0.00 0.00 0.00 0.00 0.00 0.00 0.00 0.00 0.00 0.00 0.00 0.00 0.00 0.00 0.00 0.00 0.00 0.00 0.00 0.01
0.00 0.00 0.00 0.00 0.00 0.00 0.00 0.00 0.00 0.00 0.00 0.00 0.00 0.00 0.00 0.00 0.00 0.00 0.00 0.00 0.00 0.00 0.00 0.00 0.00 0.00 0.00 0.00 0.00 0.00 0.00 0.00 0.00 0.00 0.00 0.00 0.00 0.00 0.00 0.00 0.00 0.00 0.00
0.00 0.00 0.00 0.00 0.00 0.00 0.00 0.00 0.00 0.00 0.00 0.00 0.00 0.00 0.00 0.00 0.00 0.00 0.00 0.00 0.00 0.00 0.00 0.00 0.00 0.00 0.00 0.00 0.00 0.00 0.00 0.00 0.00 0.00 0.00 0.00 0.00 0.00 0.00 0.01 0.01 0.00 0.00
0.01 0.01 0.01 0.00 0.00 0.00 0.00 0.00 0.00 0.00 0.00 0.00 0.00 0.00 0.00 0.00 0.00 0.00 0.00 0.00 0.00 0.00 0.00 0.00 0.00 0.00 0.00 0.00 0.00 0.00 0.00 0.00 0.00 0.00 0.00 0.00 0.00 0.00 0.01 0.02 0.01 0.00 0.00
0.01 0.02 0.01 0.00 0.00 0.00 0.00 0.00 0.00 0.00 0.00 0.00 0.00 0.00 0.00 0.00 0.00 0.00 0.00 0.00 0.00 0.00 0.00 0.00 0.00 0.00 0.00 0.00 0.00 0.00 0.00 0.00 0.00 0.00 0.00 0.00 0.00 0.00 0.03 0.03 0.01 0.00 0.00
0.02 0.02 0.00 0.00 0.00 0.00 0.00 0.00 0.00 0.00 0.00 0.00 0.00 0.00 0.00 0.00 0.00 0.00 0.00 0.00 0.00 0.00 0.00 0.00 0.00 0.00 0.00 0.00 0.00 0.00 0.00 0.00 0.00 0.00 0.00 0.00 0.00 0.00 0.01 0.00 0.00 0.00 0.00
0.01 0.00 0.00 0.00 0.00 0.00 0.00 0.00 0.00 0.00 0.00 0.00 0.00 0.00 0.00 0.00 0.00 0.00 0.00 0.00 0.00 0.00 0.00 0.00 0.00 0.00 0.00 0.00 0.00 0.00 0.00 0.00 0.00 0.00 0.00 0.00 0.00 0.00 0.00 0.01 0.00 0.00 0.00
0.00 0.00 0.00 0.00 0.00 0.00 0.00 0.00 0.00 0.00 0.00 0.00 0.00 0.00 0.00 0.00 0.00 0.00 0.00 0.00 0.00 0.00 0.00 0.00 0.00 0.00 0.00 0.00 0.00 0.00 0.00 0.00 0.00 0.00 0.00 0.00 0.00 0.00 0.00 0.00 0.00 0.00 0.00
0.00 0.00 0.00 0.00 0.00 0.00 0.00 0.00 0.00 0.00 0.00 0.00 0.00 0.00 0.00 0.00 0.00 0.00 0.00 0.00 0.00 0.00 0.00 0.00 0.00 0.00 0.00 0.00 0.00 0.01 0.01 0.00 0.00 0.00 0.00 0.00 0.00 0.00 0.00 0.00 0.00 0.01 0.02
0.00 0.00 0.00 0.00 0.00 0.00 0.00 0.00 0.00 0.00 0.00 0.00 0.00 0.00 0.00 0.00 0.00 0.00 0.00 0.00 0.00 0.00 0.00 0.00 0.00 0.00 0.00 0.00 0.01 0.01 0.00 0.00 0.01 0.00 0.00 0.00 0.00 0.01 0.02 0.01 0.00 0.03 0.04
0.00 0.00 0.00 0.00 0.00 0.00 0.00 0.00 0.00 0.00 0.00 0.00 0.00 0.00 0.00 0.00 0.00 0.00 0.00 0.00 0.00 0.00 0.00 0.00 0.00 0.00 0.00 0.00 0.00 0.00 0.00 0.01 0.00 0.00 0.01 0.00 0.01 0.01 0.03 0.02 0.02 0.04 0.08
0.00 0.00 0.00 0.00 0.00 0.00 0.00 0.00 0.00 0.00 0.00 0.00 0.00 0.00 0.00 0.00 0.00 0.00 0.00 0.00 0.00 0.00 0.00 0.00 0.00 0.00 0.00 0.00 0.00 0.00 0.00 0.01 0.00 0.00 0.00 0.00 0.01 0.02 0.01 0.02 0.06 0.13 0.15
0.00 0.00 0.00 0.00 0.00 0.00 0.00 0.00 0.00 0.00 0.00 0.00 0.00 0.00 0.00 0.00 0.00 0.00 0.00 0.00 0.00 0.00 0.00 0.00 0.00 0.00 0.00 0.00 0.01 0.01 0.01 0.01 0.01 0.01 0.00 0.00 0.02 0.02 0.01 0.05 0.09 0.20 0.31
MSLP
1014.62 1014.88 1015.29 1015.71 1015.97 1016.12 1016.39 1016.63 1016.85 1017.04 1017.09 1017.11 1017.15 1017.11 1017.01 1016.95 1016.98 1016.99 1016.98 1016.97 1016.93 1016.87 1016.89 1016.88 1016.89 1016.90 1016.96 1017.05 1017.15 1017.21 1017.21 1017.27 1017.34 1017.40 1017.46 1017.49 1017.53 1017.58 1017.68 1017.78 1017.87 1017.94 1018.09
1014.26 1014.52 1014.97 1015.35 1015.69 1015.79 1015.99 1016.24 1016.47 1016.71 1016.90 1016.91 1016.89 1016.83 1016.78 1016.81 1016.81 1016.87 1016.85 1016.87 1016.84 1016.79 1016.82 1016.90 1016.92 1016.90 1016.83 1016.68 1016.60 1016.59 1016.63 1016.66 1016.63 1016.61 1016.63 1016.72 1016.81 1016.88 1016.96 1017.09 1017.17 1017.24 1017.47
1013.71 1014.15 1014.62 1014.95 1015.17 1015.48 1015.77 1016.08 1016.30 1016.41 1016.58 1016.41 1016.57 1016.46 1016.68 1016.76 1016.82 1016.83 1016.82 1016.87 1016.83 1016.80 1016.75 1016.71 1016.71 1016.66 1016.57 1016.43 1016.25 1016.07 1016.00 1015.94 1015.89 1015.92 1015.94 1015.99 1016.04 1016.10 1016.22 1016.30 1016.42 1016.40 1016.67
1013.07 1013.72 1014.25 1014.53 1014.70 1015.12 1015.45 1015.89 1016.28 1016.46 1016.48 1016.45 1016.51 1016.57 1016.73 1016.71 1016.66 1016.75 1016.74 1016.68 1016.68 1016.68 1016.66 1016.69 1016.64 1016.48 1016.34 1016.10 1015.86 1015.68 1015.54 1015.42 1015.28 1015.11 1015.18 1015.22 1015.25 1015.31 1015.38 1015.35 1015.48 1015.59 1015.70
1012.59 1013.11 1013.65 1013.95 1014.26 1014.74 1015.17 1015.64 1016.10 1016.32 1016.53 1016.58 1016.59 1016.61 1016.70 1016.77 1016.73 1016.59 1016.60 1016.52 1016.58 1016.68 1016.64 1016.56 1016.42 1016.31 1016.16 1015.95 1015.71 1015.42 1015.14 1014.97 1014.79 1014.63 1014.53 1014.50 1014.51 1014.54 1014.57 1014.62 1014.41 1014.31 1014.52
1012.12 1012.64 1013.05 1013.55 1013.96 1014.54 1015.01 1015.49 1015.80 1016.11 1016.34 1016.46 1016.57 1016.69 1016.65 1016.54 1016.42 1016.51 1016.54 1016.51 1016.59 1016.54 1016.52 1016.54 1016.58 1016.45 1016.16 1015.90 1015.71 1015.37 1015.02 1014.67 1014.41 1014.19 1013.97 1013.84 1013.79 1013.80 1013.78 1013.74 1013.80 1013.82 1013.55
1011.63 1012.11 1012.75 1013.29 1013.72 1014.29 1014.70 1015.09 1015.70 1016.08 1016.47 1016.66 1016.88 1017.02 1016.72 1016.49 1016.54 1016.56 1016.51 1016.65 1016.65 1016.64 1016.63 1016.66 1016.53 1016.28 1016.01 1015.83 1015.60 1015.32 1014.99 1014.64 1014.21 1013.98 1013.57 1013.24 1013.06 1013.05 1013.10 1013.04 1012.95 1012.86 1013.11
1011.16 1011.61 1012.21 1012.84 1013.47 1014.10 1014.53 1014.96 1015.47 1016.25 1016.83 1017.00 1017.29 1017.89 1017.88 1017.21 1016.85 1016.50 1016.56 1016.60 1016.65 1016.78 1016.63 1016.39 1016.27 1016.03 1015.80 1015.66 1015.45 1015.16 1014.98 1014.75 1014.43 1014.08 1013.58 1013.21 1012.82 1012.47 1012.44 1012.40 1012.35 1012.27 1012.16
1010.59 1011.09 1011.60 1012.23 1012.99 1013.71 1014.34 1014.84 1015.27 1015.87 1016.79 1017.27 1017.28 1017.69 1018.34 1018.35 1018.10 1016.93 1016.55 1016.50 1016.61 1016.62 1016.64 1016.59 1016.17 1015.85 1015.67 1015.51 1015.42 1015.25 1014.99 1014.78 1014.48 1014.03 1013.48 1012.96 1012.48 1012.02 1011.78 1011.70 1011.71 1011.58 1011.40
1010.38 1010.84 1011.33 1011.91 1012.57 1013.43 1014.25 1014.79 1015.29 1015.77 1016.22 1017.23 1017.62 1017.75 1018.00 1018.28 1018.59 1018.04 1017.17 1016.67 1016.56 1016.68 1016.63 1016.31 1016.04 1015.77 1015.61 1015.35 1015.17 1015.04 1014.79 1014.46 1014.16 1013.89 1013.48 1012.93 1012.30 1011.69 1011.17 1010.95 1011.03 1010.85 1010.59
1010.05 1010.66 1011.23 1011.92 1012.70 1013.42 1013.93 1014.38 1015.28 1015.70 1016.03 1016.83 1017.31 1017.78 1018.17 1018.48 1018.68 1019.02 1018.43 1017.42 1016.83 1016.56 1016.54 1016.41 1015.91 1015.61 1015.43 1015.21 1014.90 1014.67 1014.42 1014.15 1013.86 1013.35 1012.96 1012.60 1012.12 1011.56 1010.92 1010.41 1010.21 1010.00 1009.87
1010.13 1010.50 1011.02 1011.80 1012.67 1013.38 1014.03 1014.60 1015.21 1015.79 1016.35 1016.80 1017.20 1017.60 1017.88 1018.44 1018.71 1018.69 1018.82 1018.17 1017.62 1016.59 1016.58 1016.50 1016.10 1015.65 1015.39 1015.33 1014.99 1014.70 1014.40 1014.10 1013.77 1013.31 1012.82 1012.22 1011.81 1011.38 1010.76 1010.04 1009.45 1009.18 1009.02
1010.31 1010.84 1011.41 1012.03 1012.77 1013.40 1014.00 1014.41 1015.12 1016.04 1016.38 1016.88 1017.21 1017.55 1017.77 1018.10 1018.52 1018.67 1018.71 1018.41 1018.00 1017.38 1016.88 1016.25 1015.94 1015.68 1015.50 1015.49 1015.15 1014.68 1014.19 1013.87 1013.49 1013.05 1012.59 1012.05 1011.55 1011.05 1010.45 1009.72 1009.03 1008.66 1008.53
1009.83 1010.47 1011.30 1012.21 1012.92 1013.62 1014.29 1014.64 1015.12 1015.95 1016.42 1016.97 1017.37 1017.62 1018.01 1018.26 1018.59 1018.72 1018.88 1019.04 1018.25 1017.85 1017.25 1016.83 1016.31 1015.93 1015.96 1015.59 1015.29 1014.69 1014.20 1013.60 1013.18 1012.67 1012.07 1011.58 1011.14 1010.66 1010.17 1009.46 1008.94 1008.48 1008.04
1009.62 1010.41 1011.11 1011.93 1012.93 1013.37 1014.09 1014.69 1015.33 1016.03 1016.54 1016.93 1017.60 1017.96 1018.14 1018.38 1018.64 1018.75 1018.94 1019.21 1019.08 1018.28 1017.45 1016.67 1016.48 1015.84 1015.72 1015.38 1014.99 1014.47 1013.89 1013.25 1012.68 1012.21 1011.63 1011.12 1010.63 1010.05 1009.54 1008.99 1008.73 1008.19 1007.81
1009.37 1010.22 1011.05 1011.95 1012.83 1013.49 1014.04 1014.71 1015.45 1016.21 1016.75 1017.18 1017.71 1018.02 1018.14 1018.42 1018.66 1018.88 1019.07 1019.19 1019.14 1018.95 1017.88 1016.78 1016.37 1015.89 1015.36 1014.85 1014.39 1013.90 1013.35 1012.81 1012.16 1011.58 1010.99 1010.43 1009.99 1009.61 1009.18 1008.71 1008.28 1008.13 1007.65
1009.46 1010.23 1011.01 1011.97 1012.98 1013.55 1014.66 1014.98 1015.71 1016.30 1016.86 1017.34 1017.63 1017.94 1018.35 1018.61 1018.76 1018.88 1018.94 1018.94 1018.84 1018.57 1017.61 1016.57 1016.09 1015.74 1015.25 1014.75 1014.20 1013.66 1012.94 1012.21 1011.47 1010.88 1010.34 1009.77 1009.32 1009.01 1008.74 1008.24 1007.82 1007.71 1007.60
1009.74 1010.45 1011.22 1012.30 1013.31 1013.99 1015.17 1015.15 1015.85 1016.44 1016.82 1017.37 1017.73 1018.03 1018.33 1018.53 1018.73 1018.88 1018.55 1018.51 1018.25 1017.91 1017.43 1016.53 1015.90 1015.43 1015.08 1014.60 1013.97 1013.26 1012.43 1011.70 1011.04 1010.37 1009.62 1009.04 1008.72 1008.41 1008.04 1007.78 1007.34 1007.20 1007.08
1010.04 1010.99 1011.78 1012.67 1013.31 1014.30 1014.94 1015.50 1015.93 1016.40 1016.93 1017.33 1017.68 1018.04 1018.23 1018.28 1018.42 1018.65 1018.29 1018.10 1017.72 1017.55 1017.25 1016.77 1015.71 1015.28 1014.68 1014.00 1013.24 1012.65 1011.91 1011.21 1010.51 1009.78 1009.08 1008.50 1007.98 1007.59 1007.30 1006.98 1006.86 1006.53 1006.61
1010.25 1011.25 1012.05 1012.91 1013.67 1014.51 1014.90 1015.74 1016.07 1016.63 1017.10 1017.51 1017.90 1018.13 1018.27 1018.25 1018.21 1018.28 1018.15 1017.78 1017.53 1017.25 1016.94 1016.48 1015.71 1014.90 1014.39 1013.53 1013.12 1012.35 1011.39 1010.93 1010.23 1009.55 1008.87 1008.17 1007.60 1006.82 1006.33 1006.05 1006.18 1006.29 1006.06
1010.33 1011.18 1012.34 1013.23 1013.90 1014.36 1015.16 1015.73 1016.29 1016.95 1017.43 1017.74 1017.95 1018.10 1018.16 1018.02 1017.94 1018.06 1017.88 1017.56 1017.42 1017.13 1016.74 1016.21 1015.56 1014.78 1013.99 1013.19 1012.81 1012.19 1011.66 1010.93 1010.15 1009.74 1008.91 1008.25 1007.62 1006.84 1006.04 1005.66 1005.60 1005.36 1005.70
1010.59 1011.52 1012.49 1013.28 1013.90 1014.67 1015.24 1016.01 1016.47 1017.01 1017.46 1017.79 1018.12 1018.13 1017.98 1017.77 1018.14 1017.97 1017.62 1017.46 1017.30 1016.96 1016.53 1016.14 1015.49 1014.65 1013.79 1013.13 1012.50 1012.06 1011.76 1011.24 1010.55 1010.07 1009.58 1008.65 1008.21 1007.46 1006.79 1005.97 1005.39 1004.95 1004.96
1010.65 1011.60 1012.64 1013.31 1013.98 1014.78 1015.38 1015.99 1016.44 1017.04 1017.39 1017.79 1018.05 1018.01 1017.60 1017.80 1017.90 1017.75 1017.35 1016.95 1016.74 1016.45 1016.14 1015.85 1015.27 1014.52 1013.73 1012.92 1012.26 1011.88 1011.76 1011.42 1011.11 1010.74 1010.22 1009.49 1008.94 1008.41 1007.44 1006.09 1005.15 1004.92 1004.49
1010.71 1011.76 1012.74 1013.49 1014.32 1015.05 1015.55 1016.05 1016.51 1017.03 1017.34 1017.57 1017.71 1017.46 1017.59 1017.62 1017.67 1017.38 1016.98 1016.72 1016.32 1016.08 1015.70 1015.50 1015.07 1014.43 1013.81 1012.99 1012.45 1012.16 1011.66 1011.36 1011.29 1011.05 1010.62 1010.24 1009.88 1009.52 1008.23 1006.77 1005.41 1005.08 1005.18
1010.99 1011.99 1012.86 1013.62 1014.42 1015.14 1015.69 1016.01 1016.49 1016.93 1017.23 1017.31 1017.04 1017.20 1017.43 1017.36 1017.29 1017.01 1016.79 1016.50 1016.12 1015.75 1015.34 1015.00 1014.51 1013.97 1013.31 1012.72 1012.10 1011.96 1011.90 1011.63 1011.60 1011.65 1011.24 1010.89 1010.56 1010.22 1009.43 1008.45 1007.69 1006.69 1006.63
1010.74 1011.70 1012.78 1013.83 1014.69 1015.35 1015.72 1016.15 1016.47 1016.70 1017.01 1016.78 1016.80 1017.07 1017.15 1017.16 1016.96 1016.69 1016.58 1016.46 1015.92 1015.70 1015.26 1014.59 1014.22 1013.71 1013.13 1012.76 1012.37 1012.13 1011.95 1011.81 1011.76 1011.79 1011.69 1011.61 1011.11 1011.10 1010.93 1010.70 1010.34 1009.85 1009.53
Thickness
5722 5717 5713 5710 5707 5707 5704 5704 5702 5701 5700 5700 5698 5697 5697 5697 5696 5694 5694 5692 5690 5689 5687 5684 5683 5682 5681 5679 5677 5675 5673 5671 5668 5666 5664 5662 5660 5658 5655 5653 5651 5649 5647
5722 5718 5713 5709 5706 5705 5704 5702 5701 5698 5696 5696 5696 5695 5694 5693 5691 5689 5688 5687 5686 5684 5682 5679 5677 5675 5674 5673 5673 5672 5669 5667 5666 5664 5662 5659 5656 5653 5650 5648 5645 5642 5640
5723 5718 5713 5709 5705 5703 5701 5698 5696 5695 5694 5694 5693 5692 5688 5687 5685 5683 5682 5680 5678 5677 5676 5674 5672 5671 5670 5669 5668 5667 5665 5663 5661 5658 5656 5654 5651 5648 5645 5642 5640 5638 5634
5725 5718 5712 5708 5705 5701 5698 5695 5691 5689 5689 5688 5687 5685 5683 5681 5680 5677 5675 5674 5673 5671 5669 5666 5665 5664 5663 5663 5663 5661 5659 5658 5656 5654 5651 5648 5645 5642 5639 5638 5636 5633 5630
5723 5718 5714 5709 5705 5699 5695 5691 5686 5684 5681 5681 5680 5679 5676 5674 5672 5671 5669 5667 5666 5663 5661 5659 5657 5656 5655 5654 5654 5653 5651 5649 5647 5646 5644 5641 5638 5635 5632 5630 5629 5629 5626
5720 5716 5713 5708 5703 5698 5692 5688 5684 5680 5677 5675 5673 5670 5668 5668 5667 5664 5662 5659 5656 5654 5652 5650 5646 5645 5643 5642 5640 5639 5639 5638 5637 5636 5635 5634 5632 5629 5626 5624 5621 5619 5620
5718 5714 5709 5704 5699 5694 5690 5686 5679 5674 5669 5665 5662 5659 5660 5659 5657 5654 5653 5649 5646 5642 5640 5637 5634 5633 5632 5630 5627 5626 5625 5624 5624 5623 5624 5624 5623 5620 5617 5615 5613 5611 5605
5714 5711 5706 5701 5695 5689 5684 5679 5673 5664 5658 5654 5649 5640 5640 5644 5645 5644 5642 5639 5636 5631 5629 5626 5623 5621 5619 5617 5614 5612 5610 5608 5608 5608 5609 5608 5609 5610 5607 5604 5601 5598 5596
5712 5708 5703 5699 5692 5685 5678 5673 5667 5661 5650 5643 5641 5636 5626 5625 5622 5632 5631 5628 5622 5618 5615 5611 5610 5609 5605 5603 5600 5598 5596 5594 5593 5593 5594 5595 5597 5597 5596 5592 5587 5584 5580
5706 5701 5696 5692 5685 5678 5670 5664 5657 5652 5647 5637 5630 5625 5619 5613 5609 5611 5619 5618 5614 5607 5602 5598 5596 5593 5589 5588 5586 5583 5581 5580 5580 5579 5579 5581 5582 5582 5581 5578 5572 5567 5564
5700 5693 5688 5682 5675 5668 5663 5657 5648 5643 5639 5630 5624 5617 5609 5601 5595 5588 5589 5600 5602 5597 5591 5587 5583 5579 5575 5573 5573 5572 5569 5569 5569 5570 5568 5566 5565 5564 5563 5561 5556 5552 5547
5689 5686 5682 5675 5666 5659 5653 5647 5640 5634 5626 5620 5615 5609 5604 5595 5588 5584 5576 5577 5578 5586 5578 5575 5570 5567 5563 5560 5558 5556 5555 5555 5554 5555 5554 5553 5549 5545 5544 5543 5542 5541 5541
5677 5673 5669 5663 5655 5649 5643 5638 5631 5621 5616 5610 5604 5598 5593 5586 5578 5572 5566 5563 5560 5559 5560 5564 5560 5553 5549 5546 5546 5544 5545 5544 5543 5541 5539 5536 5533 5529 5526 5525 5526 5529 5531
5671 5666 5659 5650 5642 5636 5630 5626 5620 5611 5605 5597 5592 5587 5580 5572 5564 5558 5551 5542 5546 5543 5544 5543 5542 5537 5533 5531 5528 5530 5531 5531 5530 5528 5527 5524 5519 5512 5507 5508 5510 5514 5520
5661 5656 5650 5641 5632 5627 5621 5614 5607 5600 5594 5587 5579 5572 5566 5560 5553 5546 5537 5528 5525 5528 5534 5535 5527 5527 5523 5521 5520 5519 5520 5520 5518 5515 5512 5507 5502 5497 5495 5497 5499 5503 5506
5653 5646 5639 5631 5622 5615 5610 5603 5595 5587 5581 5575 5567 5561 5555 5548 5540 5532 5522 5515 5510 5508 5513 5518 5515 5512 5512 5511 5510 5508 5509 5507 5505 5502 5498 5493 5487 5484 5484 5487 5490 5491 5496
5641 5635 5627 5618 5609 5603 5594 5590 5583 5576 5569 5563 5557 5550 5543 5534 5527 5518 5511 5506 5501 5498 5504 5508 5504 5501 5499 5497 5498 5497 5496 5495 5494 5490 5485 5479 5475 5474 5475 5477 5480 5482 5484
5627 5621 5613 5603 5594 5587 5576 5576 5570 5563 5559 5551 5544 5537 5529 5522 5514 5506 5503 5498 5496 5493 5493 5496 5495 5492 5489 5487 5487 5487 5486 5482 5481 5476 5471 5469 5467 5466 5466 5466 5470 5472 5474
5613 5604 5598 5589 5582 5573 5567 5562 5557 5552 5545 5537 5531 5524 5518 5510 5503 5495 5494 5490 5488 5485 5483 5482 5486 5481 5480 5480 5480 5476 5473 5471 5467 5463 5460 5460 5462 5462 5460 5462 5461 5465 5465
5602 5594 5585 5577 5569 5561 5557 5549 5544 5537 5530 5522 5516 5511 5504 5498 5493 5486 5483 5481 5478 5476 5474 5473 5472 5472 5469 5469 5465 5465 5463 5456 5452 5448 5449 5451 5453 5456 5458 5460 5456 5455 5456
5592 5584 5573 5564 5556 5552 5544 5537 5530 5522 5514 5508 5503 5498 5492 5487 5483 5476 5472 5470 5468 5466 5464 5463 5461 5462 5460 5460 5454 5451 5446 5442 5440 5436 5438 5440 5441 5446 5450 5452 5449 5450 5451
5578 5570 5560 5552 5545 5538 5532 5524 5516 5509 5502 5495 5489 5485 5480 5476 5468 5463 5461 5459 5458 5456 5454 5451 5450 5451 5449 5447 5444 5440 5432 5428 5427 5424 5422 5428 5429 5432 5435 5437 5440 5443 5447
5566 5557 5547 5540 5533 5525 5520 5512 5505 5496 5489 5483 5477 5472 5470 5463 5456 5452 5452 5452 5451 5449 5446 5442 5440 5439 5437 5437 5435 5429 5421 5415 5412 5408 5408 5412 5413 5413 5416 5423 5429 5433 5440
5553 5543 5534 5527 5518 5512 5506 5499 5492 5484 5479 5473 5467 5465 5458 5453 5446 5444 5444 5443 5444 5440 5438 5432 5429 5428 5426 5426 5422 5417 5412 5407 5400 5398 5398 5399 5396 5394 5399 5407 5418 5423 5428
5536 5529 5520 5513 5505 5497 5492 5486 5480 5474 5467 5462 5460 5454 5448 5442 5439 5438 5435 5435 5434 5433 5430 5426 5423 5422 5421 5419 5416 5410 5403 5398 5394 5387 5386 5386 5384 5383 5386 5392 5396 5406 5412
5526 5517 5509 5498 5489 5483 5478 5472 5467 5463 5457 5454 5450 5444 5438 5434 5431 5430 5428 5425 5426 5423 5420 5420 5418 5417 5417 5413 5408 5403 5398 5394 5388 5384 5377 5375 5376 5373 5375 5374 5376 5382 5388